Regional Weather Roundup
Issued by NWS

Home | Current Version | Previous Version | Graphics & Text | Print | Product List | Glossary On
Versions: 1 2 3 4 5 6 7 8 9 10 11 12 13 14 15 16 17 18 19 20 21 22 23 24 25 26 27 28 29 30 31 32 33 34 35 36 37 38 39 40 41 42 43 44 45 46 47 48 49 50
000
ASUS43 KFSD 242110
RWRSD

WEATHER ROUNDUP FOR SOUTH DAKOTA
NATIONAL WEATHER SERVICE SIOUX FALLS SD
400 PM CDT THU APR 24 2014

NOTE: "FAIR" INDICATES FEW OR NO CLOUDS BELOW 12,000 FEET WITH NO
SIGNIFICANT WEATHER AND/OR OBSTRUCTIONS TO VISIBILITY.


SDZ001>005-009-010-012>017-242200-
NORTHWEST AND NORTH CENTRAL SOUTH DAKOTA

CITY           SKY/WX    TMP DP  RH WIND       PRES   REMARKS
BUFFALO          N/A     61  22  22 W26G44    29.72S
FAITH            N/A     61  22  22 NW24G33   29.76S
MOBRIDGE       MOSUNNY   65  18  16 NW21G30   29.69S
$$

SDZ012>016-024>037-041>051-057-063-072>074-242200-
SOUTHWEST AND SOUTH CENTRAL SOUTH DAKOTA

CITY           SKY/WX    TMP DP  RH WIND       PRES   REMARKS
RAPID CTY ARPT SUNNY     62  25  24 CALM      29.78F
PIERRE         MOSUNNY   66  26  22 NW26      29.73F
CUSTER         SUNNY     56  15  20 W16       29.82F
ELLSWORTH AFB  PTSUNNY   64  23  21 N15G24    29.77F
PHILIP         SUNNY     67  24  19 NW26G35   29.76F
PINE RIDGE     SUNNY     65  23  20 NW18G25   29.80F
SPEARFISH      FAIR      59  19  21 W12G26    29.80F
WINNER         FAIR      70  21  15 NW26G36   29.76F
$$

SDZ004>011-016>023-039-040-242200-
NORTHEAST SOUTH DAKOTA

CITY           SKY/WX    TMP DP  RH WIND       PRES   REMARKS
ABERDEEN       MOSUNNY   63  21  20 NW22G32   29.68S
WATERTOWN      LGT RAIN  57  43  59 SW6       29.68F
SISSETON         N/A     54  43  66 VRB6      29.68F
$$

SDZ017-020-022-023-036>040-048>070-242200-
SOUTHEAST SOUTH DAKOTA

CITY           SKY/WX    TMP DP  RH WIND       PRES   REMARKS
SIOUX FALLS    MOSUNNY   61  42  49 N15       29.70F
HURON          MOSUNNY   68  24  19 NW26G39   29.69F
CHAMBERLAIN      N/A     68  26  20 NW24G35   29.74F
MITCHELL       MOSUNNY   70  23  17 NW29G37   29.71F
YANKTON        SUNNY     70  30  23 NW28      29.71F
$$

ABBREVIATIONS USED IN REMARKS
   TC - TEMPERATURE IN CELSIUS
  WCI - WIND CHILL INDEX
   HX - HEAT INDEX
  VSB - VISIBILITY




USA.gov is the U.S. government's official web portal to all federal, state and local government web resources and services.